• In Hungary
  • List of Countries
  • For 7 days
  • Water Temperature
  • Satellite Maps
  • Weather Map
  • News
  • Weather Widgets
  • user-avatar
    Login

    Hourly Weather Staische

    Today, 22 October, Monday

    Time Temperature Precipitation Wind Pressure Humidity
    00:00 +5°C° 0 mm 1 mps 756 mmHg 83%
    01:00 +4°C° 0 mm 1 mps 756 mmHg 85%
    02:00 +3°C° 0 mm 2 mps 756 mmHg 86%
    03:00 +3°C° 0 mm 2 mps 756 mmHg 88%
    04:00 +3°C° 0 mm 2 mps 756 mmHg 89%
    05:00 +2°C° 0 mm 2 mps 755 mmHg 90%
    06:00 +3°C° 0 mm 2 mps 755 mmHg 89%
    07:00 +2°C° 0 mm 3 mps 755 mmHg 87%
    08:00 +2°C° 0 mm 3 mps 755 mmHg 86%
    09:00 +4°C° 0 mm 3 mps 754 mmHg 79%
    10:00 +6°C° 0 mm 4 mps 754 mmHg 73%
    11:00 +7°C° 0 mm 4 mps 753 mmHg 67%
    12:00 +8°C° 0 mm 5 mps 753 mmHg 65%
    13:00 +9°C° 0 mm 5 mps 752 mmHg 64%
    14:00 +9°C° 0 mm 5 mps 751 mmHg 62%
    15:00 +8°C° 0 mm 5 mps 751 mmHg 67%
    16:00 +7°C° 0 mm 4 mps 750 mmHg 72%
    17:00 +6°C° 0 mm 4 mps 750 mmHg 76%
    18:00 +6°C° 0.1 mm 4 mps 749 mmHg 78%
    19:00 +6°C° 0.1 mm 4 mps 749 mmHg 80%
    20:00 +6°C° 0.1 mm 5 mps 748 mmHg 81%
    21:00 +6°C° 0.5 mm 5 mps 748 mmHg 84%
    22:00 +6°C° 0.5 mm 5 mps 747 mmHg 86%
    23:00 +6°C° 0.5 mm 4 mps 747 mmHg 88%

    Tomorrow, 23 October, Tuesday

    Time Temperature Precipitation Wind Pressure Humidity
    00:00 +6°C° 0.2 mm 4 mps 747 mmHg 89%
    01:00 +5°C° 0.2 mm 4 mps 747 mmHg 90%
    02:00 +5°C° 0.2 mm 3 mps 747 mmHg 91%
    03:00 +4°C° 0 mm 3 mps 746 mmHg 92%
    04:00 +3°C° 0 mm 3 mps 746 mmHg 93%
    05:00 +2°C° 0 mm 3 mps 746 mmHg 94%
    06:00 +2°C° 0 mm 3 mps 746 mmHg 93%
    07:00 +2°C° 0 mm 3 mps 745 mmHg 91%
    08:00 +3°C° 0 mm 2 mps 745 mmHg 90%
    09:00 +4°C° 0 mm 3 mps 745 mmHg 84%
    10:00 +5°C° 0 mm 3 mps 744 mmHg 78%
    11:00 +7°C° 0 mm 3 mps 743 mmHg 73%
    12:00 +7°C° 0 mm 3 mps 743 mmHg 70%
    13:00 +7°C° 0 mm 4 mps 742 mmHg 66%
    14:00 +7°C° 0 mm 4 mps 741 mmHg 63%
    15:00 +6°C° 0.1 mm 4 mps 740 mmHg 68%
    16:00 +6°C° 0.1 mm 4 mps 739 mmHg 72%
    17:00 +5°C° 0.1 mm 4 mps 738 mmHg 76%
    18:00 +4°C° 0 mm 4 mps 736 mmHg 78%
    19:00 +3°C° 0 mm 5 mps 735 mmHg 81%
    20:00 +2°C° 0 mm 5 mps 734 mmHg 83%
    21:00 +2°C° 0.1 mm 5 mps 733 mmHg 83%
    22:00 +3°C° 0.1 mm 6 mps 731 mmHg 83%
    23:00 +3°C° 0.1 mm 6 mps 730 mmHg 84%

    Day after tomorrow, 24 October, Wednesday

    Time Temperature Precipitation Wind Pressure Humidity
    00:00 +3°C° 0.5 mm 6 mps 728 mmHg 84%
    01:00 +3°C° 0.5 mm 6 mps 727 mmHg 85%
    02:00 +3°C° 0.5 mm 6 mps 726 mmHg 86%
    03:00 +3°C° 0.3 mm 5 mps 725 mmHg 88%
    04:00 +3°C° 0.3 mm 5 mps 725 mmHg 89%
    05:00 +4°C° 0.3 mm 4 mps 724 mmHg 90%
    06:00 +5°C° 0.2 mm 4 mps 724 mmHg 91%
    07:00 +5°C° 0.2 mm 3 mps 723 mmHg 91%
    08:00 +5°C° 0.2 mm 3 mps 723 mmHg 91%
    09:00 +5°C° 0 mm 3 mps 724 mmHg 87%
    10:00 +7°C° 0 mm 3 mps 724 mmHg 83%
    11:00 +7°C° 0 mm 3 mps 724 mmHg 78%
    12:00 +7°C° 0.1 mm 3 mps 725 mmHg 78%
    13:00 +7°C° 0.1 mm 3 mps 725 mmHg 79%
    14:00 +7°C° 0.1 mm 3 mps 725 mmHg 79%
    15:00 +5°C° 0 mm 3 mps 726 mmHg 81%
    16:00 +5°C° 0 mm 3 mps 726 mmHg 84%
    17:00 +5°C° 0 mm 3 mps 727 mmHg 86%
    18:00 +5°C° 0.1 mm 3 mps 727 mmHg 88%
    19:00 +4°C° 0.1 mm 3 mps 728 mmHg 89%
    20:00 +4°C° 0.1 mm 3 mps 729 mmHg 91%
    21:00 +4°C° 0 mm 4 mps 729 mmHg 90%
    22:00 +4°C° 0 mm 4 mps 730 mmHg 89%
    23:00 +3°C° 0 mm 5 mps 730 mmHg 89%

    25 October, Thursday

    Time Temperature Precipitation Wind Pressure Humidity
    00:00 +3°C° 0.1 mm 5 mps 731 mmHg 87%
    01:00 +3°C° 0.1 mm 6 mps 731 mmHg 86%
    02:00 +3°C° 0.1 mm 6 mps 732 mmHg 84%
    03:00 +2°C° 0 mm 6 mps 732 mmHg 85%
    04:00 +2°C° 0 mm 6 mps 732 mmHg 85%
    05:00 +1°C° 0 mm 6 mps 733 mmHg 85%
    06:00 +1°C° 0 mm 6 mps 733 mmHg 86%
    07:00 +1°C° 0 mm 6 mps 733 mmHg 87%
    08:00 0°C° 0 mm 5 mps 733 mmHg 88%
    09:00 +1°C° 0 mm 5 mps 733 mmHg 85%
    10:00 +2°C° 0 mm 5 mps 733 mmHg 81%
    11:00 +2°C° 0 mm 5 mps 733 mmHg 78%
    12:00 +2°C° 0 mm 5 mps 733 mmHg 76%
    13:00 +3°C° 0 mm 5 mps 732 mmHg 74%
    14:00 +3°C° 0 mm 5 mps 732 mmHg 71%
    15:00 +4°C° 0 mm 4 mps 732 mmHg 73%
    16:00 +3°C° 0 mm 4 mps 733 mmHg 74%
    17:00 +3°C° 0 mm 4 mps 733 mmHg 76%
    18:00 +3°C° 0 mm 4 mps 733 mmHg 78%
    19:00 +2°C° 0 mm 3 mps 733 mmHg 80%
    20:00 +2°C° 0 mm 3 mps 733 mmHg 82%
    21:00 +2°C° 0 mm 3 mps 734 mmHg 85%
    22:00 +1°C° 0 mm 3 mps 734 mmHg 88%
    23:00 +1°C° 0 mm 3 mps 734 mmHg 91%

    26 October, Friday

    Time Temperature Precipitation Wind Pressure Humidity
    00:00 +1°C° 0 mm 3 mps 735 mmHg 92%
    01:00 0°C° 0 mm 3 mps 735 mmHg 93%
    02:00 0°C° 0 mm 3 mps 736 mmHg 94%
    03:00 0°C° 0 mm 3 mps 736 mmHg 94%
    04:00 0°C° 0 mm 3 mps 736 mmHg 93%
    05:00 -1°C° 0 mm 4 mps 737 mmHg 93%
    06:00 -1°C° 0 mm 4 mps 737 mmHg 92%
    07:00 -1°C° 0 mm 4 mps 738 mmHg 92%
    08:00 -1°C° 0 mm 4 mps 738 mmHg 91%
    09:00 0°C° 0 mm 4 mps 738 mmHg 86%
    10:00 +1°C° 0 mm 5 mps 739 mmHg 81%
    11:00 +2°C° 0 mm 5 mps 739 mmHg 76%
    12:00 +3°C° 0 mm 5 mps 740 mmHg 73%
    13:00 +3°C° 0 mm 5 mps 740 mmHg 71%
    14:00 +5°C° 0 mm 5 mps 740 mmHg 68%
    15:00 +4°C° 0 mm 4 mps 741 mmHg 70%
    16:00 +4°C° 0 mm 4 mps 741 mmHg 72%
    17:00 +4°C° 0 mm 3 mps 742 mmHg 74%
    18:00 +3°C° 0 mm 3 mps 742 mmHg 76%
    19:00 +4°C° 0 mm 2 mps 742 mmHg 78%
    20:00 +4°C° 0 mm 2 mps 743 mmHg 81%
    21:00 +3°C° 0 mm 2 mps 743 mmHg 84%
    22:00 +2°C° 0 mm 2 mps 743 mmHg 87%
    23:00 +1°C° 0 mm 3 mps 743 mmHg 91%

    27 October, Saturday

    Time Temperature Precipitation Wind Pressure Humidity
    00:00 +1°C° 0 mm 3 mps 743 mmHg 91%
    01:00 +1°C° 0 mm 3 mps 743 mmHg 91%
    02:00 0°C° 0 mm 4 mps 743 mmHg 91%
    03:00 0°C° 0 mm 4 mps 742 mmHg 91%
    04:00 +1°C° 0 mm 4 mps 742 mmHg 90%
    05:00 +1°C° 0 mm 5 mps 742 mmHg 90%
    06:00 +1°C° 0.2 mm 5 mps 741 mmHg 89%
    07:00 +2°C° 0.2 mm 5 mps 741 mmHg 88%
    08:00 +2°C° 0.2 mm 6 mps 741 mmHg 87%
    09:00 +3°C° 0.2 mm 6 mps 741 mmHg 86%
    10:00 +4°C° 0.2 mm 6 mps 741 mmHg 86%
    11:00 +4°C° 0.2 mm 6 mps 741 mmHg 85%
    12:00 +5°C° 0.1 mm 6 mps 741 mmHg 83%
    13:00 +7°C° 0.1 mm 6 mps 740 mmHg 81%
    14:00 +8°C° 0.1 mm 5 mps 740 mmHg 79%
    15:00 +7°C° 0 mm 4 mps 741 mmHg 82%
    16:00 +8°C° 0 mm 3 mps 741 mmHg 85%
    17:00 +7°C° 0 mm 2 mps 741 mmHg 88%
    18:00 +7°C° 0 mm 2 mps 741 mmHg 89%
    19:00 +7°C° 0 mm 2 mps 741 mmHg 90%
    20:00 +6°C° 0 mm 2 mps 741 mmHg 91%
    21:00 +6°C° 0 mm 2 mps 741 mmHg 92%
    22:00 +6°C° 0 mm 2 mps 741 mmHg 92%
    23:00 +5°C° 0 mm 2 mps 741 mmHg 93%

    28 October, Sunday

    Time Temperature Precipitation Wind Pressure Humidity
    00:00 +4°C° 0 mm 3 mps 741 mmHg 92%
    01:00 +5°C° 0 mm 3 mps 740 mmHg 92%
    02:00 +5°C° 0 mm 3 mps 740 mmHg 91%
    03:00 +5°C° 0.1 mm 4 mps 739 mmHg 91%
    04:00 +6°C° 0.1 mm 5 mps 739 mmHg 92%
    05:00 +6°C° 0.1 mm 5 mps 738 mmHg 92%
    06:00 +7°C° 0.2 mm 6 mps 738 mmHg 91%
    07:00 +8°C° 0.2 mm 6 mps 737 mmHg 91%
    08:00 +8°C° 0.2 mm 6 mps 737 mmHg 90%
    09:00 +10°C° 0.1 mm 6 mps 737 mmHg 84%
    10:00 +11°C° 0.1 mm 7 mps 737 mmHg 77%
    11:00 +14°C° 0.1 mm 7 mps 736 mmHg 71%
    12:00 +15°C° 0 mm 7 mps 736 mmHg 69%
    13:00 +15°C° 0 mm 7 mps 736 mmHg 68%
    14:00 +16°C° 0 mm 6 mps 736 mmHg 66%
    15:00 +15°C° 0 mm 6 mps 737 mmHg 69%
    16:00 +15°C° 0 mm 6 mps 737 mmHg 73%
    17:00 +14°C° 0 mm 6 mps 738 mmHg 76%
    18:00 +11°C° 0 mm 6 mps 739 mmHg 77%
    19:00 +10°C° 0 mm 6 mps 740 mmHg 77%
    20:00 +9°C° 0 mm 6 mps 741 mmHg 78%
    21:00 +8°C° 0 mm 6 mps 742 mmHg 78%
    22:00 +8°C° 0 mm 6 mps 743 mmHg 77%
    23:00 +7°C° 0 mm 5 mps 744 mmHg 76%
    Show more